Hourly Data Report for August 07, 2022

KUGAARUK CLIMATE
NUNAVUT
Current Station Operator: ECCC - MSC

68°32'15.060" N
89°47'47.020" W
15.80 m
2303094
71407
NBB

Download Data

Hourly Data (August 2022)
Hourly Data Report for August 7, 2022
TIME
LST
Temp Definition
°C
Dew Point Definition
°C
Rel Hum Definition
%
Precip. Amount Definition
mm

Wind Dir Definition
10's deg

Wind Spd Definition
km/h
Visibility Definition
km
Stn Press Definition
kPa
Hmdx Definition


Wind Chill Definition


Weather Definition


00:00 6.4 3.5 82 0.0 24 6   100.79     LegendNANA
01:00 7.2 4.3 82 0.0 22 7   100.79     LegendNANA
02:00 6.9 4.6 85 0.0 24 8   100.79     LegendNANA
03:00 7.4 4.3 80 0.0 23 5   100.81     LegendNANA
04:00 8.9 5.2 78 0.0 22 12   100.82     LegendNANA
05:00 9.5 6.6 82 0.0 24 10   100.83     LegendNANA
06:00 10.1 6.4 78 0.0 24 10   100.84     LegendNANA
07:00 11.1 6.3 72 0.0 24 14   100.83     LegendNANA
08:00 11.7 5.1 64 0.0 25 15   100.81     LegendNANA
09:00 12.6 5.2 61 0.0 25 15   100.80     LegendNANA
10:00 13.6 4.6 54 0.0 24 15   100.78     LegendNANA
11:00 14.8 4.2 49 0.0 25 13   100.76     LegendNANA
12:00 15.9 4.8 48 0.0 26 13   100.74     LegendNANA
13:00 16.8 5.5 47 0.0 25 14   100.74     LegendNANA
14:00 17.4 5.5 46 0.0 31 7   100.73     LegendNANA
15:00 17.1 4.7 44 0.0 3 11   100.74     LegendNANA
16:00 16.3 4.8 46 0.0 2 19   100.76     LegendNANA
17:00 15.8 3.5 44 0.0 2 19   100.77     LegendNANA
18:00 14.7 4.4 50 0.0 2 16   100.78     LegendNANA
19:00 13.2 4.5 56 0.0 2 16   100.78     LegendNANA
20:00 11.5 5.3 66 0.0 9 6   100.80     LegendNANA
21:00 10.1 5.5 73 0.0 7 5   100.81     LegendNANA
22:00 9.6 5.7 77 0.0 12 3   100.82     LegendNANA
23:00 9.3 6.0 80 0.0 3 7   100.82     LegendNANA

Notes on Data Quality.

Legend

  • E = Estimated
  • M = Missing
  • NA = Not Available*
  • [empty] = Indicates an unobserved value
Date modified: